• In Denmark
  • List of Countries
  • For 7 days
  • Water Temperature
  • Satellite Maps
  • Weather Map
  • Weather Widgets
  • user-avatar
    Login

    Hourly Weather Prutz

    Today, 26 February, Monday

    Time Temperature Precipitation Wind Pressure Humidity
    00:00 -20°C° 0 mm 1 mps 624 mmHg 90%
    01:00 -20°C° 0 mm 1 mps 624 mmHg 89%
    02:00 -21°C° 0 mm 1 mps 624 mmHg 88%
    03:00 -21°C° 0 mm 1 mps 623 mmHg 87%
    04:00 -22°C° 0 mm 1 mps 623 mmHg 85%
    05:00 -22°C° 0 mm 1 mps 623 mmHg 84%
    06:00 -23°C° 0 mm 1 mps 623 mmHg 83%
    07:00 -23°C° 0 mm 1 mps 623 mmHg 82%
    08:00 -24°C° 0 mm 2 mps 623 mmHg 80%
    09:00 -21°C° 0 mm 2 mps 624 mmHg 77%
    10:00 -18°C° 0 mm 2 mps 624 mmHg 75%
    11:00 -18°C° 0 mm 2 mps 624 mmHg 74%
    12:00 -18°C° 0 mm 3 mps 624 mmHg 74%
    13:00 -17°C° 0 mm 3 mps 624 mmHg 73%
    14:00 -17°C° 0 mm 3 mps 624 mmHg 76%
    15:00 -17°C° 0 mm 3 mps 624 mmHg 78%
    16:00 -18°C° 0 mm 3 mps 623 mmHg 80%
    17:00 -19°C° 0.1 mm 3 mps 623 mmHg 84%
    18:00 -20°C° 0.1 mm 2 mps 623 mmHg 87%
    19:00 -21°C° 0.1 mm 2 mps 622 mmHg 91%
    20:00 -23°C° 0 mm 2 mps 622 mmHg 91%
    21:00 -21°C° 0 mm 1 mps 622 mmHg 91%
    22:00 -21°C° 0 mm 1 mps 622 mmHg 92%
    23:00 -22°C° 0 mm 1 mps 621 mmHg 90%

    Tomorrow, 27 February, Tuesday

    Time Temperature Precipitation Wind Pressure Humidity
    00:00 -22°C° 0 mm 1 mps 621 mmHg 89%
    01:00 -22°C° 0 mm 1 mps 621 mmHg 87%
    02:00 -23°C° 0 mm 1 mps 621 mmHg 87%
    03:00 -23°C° 0 mm 1 mps 620 mmHg 86%
    04:00 -23°C° 0 mm 1 mps 620 mmHg 86%
    05:00 -23°C° 0 mm 1 mps 620 mmHg 86%
    06:00 -23°C° 0 mm 1 mps 620 mmHg 86%
    07:00 -23°C° 0 mm 1 mps 620 mmHg 86%
    08:00 -21°C° 0 mm 1 mps 621 mmHg 83%
    09:00 -19°C° 0 mm 1 mps 622 mmHg 80%
    10:00 -16°C° 0 mm 1 mps 622 mmHg 77%
    11:00 -15°C° 0 mm 1 mps 622 mmHg 76%
    12:00 -17°C° 0 mm 2 mps 622 mmHg 74%
    13:00 -16°C° 0 mm 2 mps 623 mmHg 72%
    14:00 -16°C° 0.1 mm 2 mps 622 mmHg 75%
    15:00 -16°C° 0.1 mm 2 mps 622 mmHg 77%
    16:00 -16°C° 0.1 mm 2 mps 622 mmHg 80%
    17:00 -17°C° 0.1 mm 2 mps 622 mmHg 85%
    18:00 -17°C° 0.1 mm 1 mps 622 mmHg 89%
    19:00 -18°C° 0.1 mm 1 mps 622 mmHg 94%
    20:00 -19°C° 0 mm 1 mps 622 mmHg 93%
    21:00 -20°C° 0 mm 1 mps 622 mmHg 93%
    22:00 -21°C° 0 mm 1 mps 622 mmHg 93%
    23:00 -21°C° 0 mm 1 mps 622 mmHg 90%

    Day after tomorrow, 28 February, Wednesday

    Time Temperature Precipitation Wind Pressure Humidity
    00:00 -21°C° 0 mm 1 mps 622 mmHg 88%
    01:00 -21°C° 0 mm 1 mps 622 mmHg 85%
    02:00 -21°C° 0 mm 1 mps 622 mmHg 84%
    03:00 -21°C° 0 mm 1 mps 622 mmHg 83%
    04:00 -21°C° 0 mm 1 mps 622 mmHg 82%
    05:00 -21°C° 0 mm 1 mps 622 mmHg 81%
    06:00 -21°C° 0 mm 1 mps 623 mmHg 80%
    07:00 -21°C° 0 mm 1 mps 623 mmHg 80%
    08:00 -18°C° 0 mm 1 mps 624 mmHg 75%
    09:00 -15°C° 0 mm 1 mps 625 mmHg 69%
    10:00 -12°C° 0 mm 1 mps 626 mmHg 64%
    11:00 -11°C° 0 mm 1 mps 626 mmHg 63%
    12:00 -9°C° 0 mm 1 mps 626 mmHg 61%
    13:00 -9°C° 0 mm 2 mps 627 mmHg 59%
    14:00 -9°C° 0 mm 2 mps 627 mmHg 62%
    15:00 -9°C° 0 mm 2 mps 626 mmHg 64%
    16:00 -8°C° 0 mm 2 mps 626 mmHg 67%
    17:00 -10°C° 0 mm 2 mps 626 mmHg 73%
    18:00 -13°C° 0 mm 2 mps 626 mmHg 79%
    19:00 -15°C° 0 mm 2 mps 626 mmHg 84%
    20:00 -15°C° 0 mm 2 mps 626 mmHg 84%
    21:00 -16°C° 0 mm 2 mps 626 mmHg 84%
    22:00 -17°C° 0 mm 3 mps 626 mmHg 83%
    23:00 -17°C° 0 mm 3 mps 626 mmHg 82%

    1 March, Thursday

    Time Temperature Precipitation Wind Pressure Humidity
    00:00 -17°C° 0 mm 3 mps 626 mmHg 81%
    01:00 -17°C° 0 mm 3 mps 626 mmHg 80%
    02:00 -16°C° 0 mm 3 mps 626 mmHg 79%
    03:00 -16°C° 0 mm 3 mps 625 mmHg 78%
    04:00 -15°C° 0 mm 3 mps 625 mmHg 77%
    05:00 -15°C° 0 mm 3 mps 625 mmHg 77%
    06:00 -15°C° 0 mm 3 mps 625 mmHg 77%
    07:00 -14°C° 0 mm 3 mps 625 mmHg 77%
    08:00 -12°C° 0 mm 3 mps 625 mmHg 76%
    09:00 -8°C° 0 mm 3 mps 626 mmHg 76%
    10:00 -6°C° 0 mm 3 mps 626 mmHg 75%
    11:00 -5°C° 0 mm 3 mps 626 mmHg 77%
    12:00 -4°C° 0 mm 3 mps 626 mmHg 78%
    13:00 -2°C° 0 mm 3 mps 626 mmHg 80%
    14:00 -2°C° 0.1 mm 3 mps 625 mmHg 81%
    15:00 -2°C° 0.1 mm 3 mps 625 mmHg 83%
    16:00 -2°C° 0.1 mm 3 mps 625 mmHg 84%
    17:00 -4°C° 0.1 mm 3 mps 624 mmHg 86%
    18:00 -5°C° 0.1 mm 3 mps 624 mmHg 88%
    19:00 -7°C° 0.1 mm 3 mps 624 mmHg 89%
    20:00 -7°C° 0 mm 3 mps 624 mmHg 88%
    21:00 -7°C° 0 mm 3 mps 624 mmHg 88%
    22:00 -7°C° 0 mm 3 mps 624 mmHg 87%
    23:00 -7°C° 0.1 mm 3 mps 623 mmHg 86%

    2 March, Friday

    Time Temperature Precipitation Wind Pressure Humidity
    00:00 -7°C° 0.1 mm 3 mps 623 mmHg 86%
    01:00 -7°C° 0.1 mm 3 mps 623 mmHg 86%
    02:00 -7°C° 0 mm 3 mps 623 mmHg 86%
    03:00 -7°C° 0 mm 3 mps 622 mmHg 86%
    04:00 -6°C° 0 mm 3 mps 622 mmHg 86%
    05:00 -5°C° 0 mm 2 mps 622 mmHg 85%
    06:00 -5°C° 0 mm 2 mps 622 mmHg 85%
    07:00 -5°C° 0 mm 2 mps 622 mmHg 84%
    08:00 -4°C° 0 mm 2 mps 622 mmHg 83%
    09:00 0°C° 0 mm 1 mps 623 mmHg 82%
    10:00 +2°C° 0 mm 1 mps 623 mmHg 81%
    11:00 +3°C° 0 mm 1 mps 623 mmHg 82%
    12:00 +4°C° 0 mm 1 mps 623 mmHg 84%
    13:00 +5°C° 0 mm 1 mps 623 mmHg 85%
    14:00 +5°C° 0 mm 1 mps 623 mmHg 86%
    15:00 +4°C° 0 mm 0 mps 623 mmHg 87%
    16:00 +4°C° 0 mm 0 mps 623 mmHg 89%
    17:00 +3°C° 0 mm 1 mps 623 mmHg 89%
    18:00 +2°C° 0 mm 1 mps 622 mmHg 90%
    19:00 0°C° 0 mm 1 mps 622 mmHg 90%
    20:00 0°C° 0 mm 1 mps 622 mmHg 88%
    21:00 0°C° 0 mm 1 mps 622 mmHg 87%
    22:00 -2°C° 0 mm 2 mps 623 mmHg 85%
    23:00 -2°C° 0.1 mm 2 mps 623 mmHg 85%

    3 March, Saturday

    Time Temperature Precipitation Wind Pressure Humidity
    00:00 -2°C° 0.1 mm 2 mps 623 mmHg 85%
    01:00 +1°C° 0.1 mm 1 mps 623 mmHg 85%
    02:00 +1°C° 0.1 mm 1 mps 623 mmHg 86%
    03:00 +1°C° 0.1 mm 1 mps 623 mmHg 86%
    04:00 +1°C° 0.1 mm 1 mps 623 mmHg 86%
    05:00 0°C° 0.1 mm 1 mps 623 mmHg 86%
    06:00 0°C° 0.1 mm 1 mps 623 mmHg 86%
    07:00 0°C° 0.1 mm 1 mps 622 mmHg 86%
    08:00 +1°C° 0.1 mm 1 mps 623 mmHg 87%
    09:00 +2°C° 0.1 mm 1 mps 623 mmHg 87%
    10:00 +4°C° 0.1 mm 1 mps 624 mmHg 88%
    11:00 +4°C° 0.2 mm 1 mps 624 mmHg 88%
    12:00 +4°C° 0.2 mm 1 mps 624 mmHg 89%
    13:00 +4°C° 0.2 mm 0 mps 624 mmHg 89%
    14:00 +5°C° 0.2 mm 1 mps 624 mmHg 90%
    15:00 +5°C° 0.2 mm 1 mps 624 mmHg 91%
    16:00 +5°C° 0.2 mm 1 mps 624 mmHg 92%
    17:00 +3°C° 0.1 mm 1 mps 624 mmHg 92%
    18:00 +2°C° 0.1 mm 1 mps 624 mmHg 92%
    19:00 +1°C° 0.1 mm 1 mps 624 mmHg 92%
    20:00 0°C° 0 mm 1 mps 624 mmHg 90%
    21:00 0°C° 0 mm 1 mps 624 mmHg 88%
    22:00 -1°C° 0 mm 1 mps 624 mmHg 87%
    23:00 -1°C° 0 mm 1 mps 624 mmHg 85%
    Show more